Location: ???????
(55.4362°N, 38.1183°E)
Time: 19:14:07
(UTC+00:00)

RESURS 01 DEB - Visible Passes

Search period start: 16 January 2022 00:00
Search period end: 26 January 2022 00:00
Orbit: 613 x 630 km, 97.9° (Epoch: 15 January)

Date Brightness Start Highest point End Pass type
(mag) Time Alt. Az. Time Alt. Az. Time Alt. Az.
20 Jan ? 16:22:02 11° N 16:22:02 11° N 16:22:16 10° N visible
21 Jan ? 16:39:49 12° N 16:39:49 12° N 16:40:11 10° N visible
22 Jan ? 16:57:36 13° N 16:57:36 13° N 16:58:03 10° N visible
23 Jan ? 17:15:22 13° N 17:15:22 13° N 17:15:51 10° N visible
24 Jan ? 15:55:56 12° NNE 15:55:56 12° NNE 15:56:22 10° NNE visible
24 Jan ? 17:33:07 13° NNW 17:33:07 13° NNW 17:33:34 10° NNW visible
25 Jan ? 16:13:40 13° NNE 16:13:40 13° NNE 16:14:24 10° N visible
25 Jan ? 17:50:51 12° NNW 17:50:51 12° NNW 17:51:14 10° NNW visible
